Presure
160 168 167 125 165 138 156 185 160 185 187 135 134 140 140 154 171 122 123 133 184 158 180 128 156 183 159 167 193 191 146 166 181 163 156 167 205 187 204 211 216 190 239 193 210
181 167 170 164 172 133 170 180 142 170 184 130 165 179 150 152 169 160 191 150 155 179 125 141 174 180 175 197 184 190 196 179 182 188 196 209 203 213 212 214 225 236 228 220 214
174 176 172 129 165 159 131 175 196 185 141 179 181 127 188 162 162 186 141 171 166 192 181 152 180 153 200 193 199 199 197 168 188 187 206 212 199 199 209 234 226 241 227 227 227
182 184 182 178 185 153 192 139 179 132 179 125 134 185 133 160 160 129 164 185 179 182 145 204 191 180 208 205 186 177 187 199 190 201 212 220 215 218 232 227 225 235 231 219 215
179 170 156 174 153 154 190 190 180 183 184 186 166 168 127 131 183 140 156 177 178 187 179 177 157 203 185 205 186 192 185 194 209 205 209 215 232 207 238 207 230 230 234 217 223
184 183 164 176 178 175 178 189 172 185 193 142 156 190 158 175 153 134 146 198 181 185 157 204 184 200 217 207 169 220 207 220 230 241 223 236 238 234 233 228 166 215 227 225 226
171 178 182 184 122 178 177 183 169 164 147 128 187 193 190 179 198 161 202 189 206 182 136 217 222 229 225 196 232 215 176 229 209 216 329 244 288 257 240 239 232 234 235 218 226
185 186 183 174 170 173 180 176 173 179 146 179 184 189 180 165 156 195 144 143 204 151 198 216 227 167 235 227 244 223 232 244 278 275 289 277 300 263 280 257 251 244 247 214 218
194 186 176 162 180 180 181 167 172 150 134 164 116 163 195 203 210 143 165 170 184 198 171 169 229 226 213 242 244 244 280 356 335 321 319 316 310 280 284 277 269 266 231 223 214
175 187 155 138 191 178 143 182 193 190 175 180 221 216 219 214 203 219 216 204 192 218 214 221 230 232 248 229 245 274 339 329 316 300 300 314 297 264 259 256 265 240 230 228 210
217 149 187 178 185 133 108 193 194 187 206 227 222 141 209 212 187 225 200 224 220 150 220 224 245 246 236 239 315 316 322 320 308 307 304 312 295 296 297 281 266 237 217 221 209
154 210 173 186 190 180 159 179 193 201 206 231 219 212 221 217 217 195 214 216 222 220 206 160 191 191 298 255 247 325 316 315 299 291 294 298 287 298 298 270 238 221 212 219 210
183 186 192 192 190 190 182 217 204 202 213 230 217 225 215 219 138 224 212 218 207 214 231 243 212 211 215 236 318 318 310 302 292 281 290 271 266 278 260 244 244 247 169 214 201
198 187 185 201 193 212 202 208 204 209 214 228 221 218 213 211 211 215 215 218 221 228 240 241 264 244 277 320 320 319 298 295 279 273 284 268 271 262 274 261 244 221 226 206 206
203 199 209 181 202 211 211 209 206 200 209 231 223 215 211 211 213 220 224 225 233 230 261 295 249 256 290 325 337 307 293 285 270 266 277 252 262 247 255 247 217 216 117 205 198
213 210 185 192 208 214 205 206 202 204 213 233 220 213 218 218 218 179 230 226 242 244 256 242 254 287 311 329 333 295 286 279 269 258 270 249 249 232 237 225 225 208 211 209 211
217 218 214 213 214 212 215 214 223 208 226 229 224 222 213 221 227 207 230 239 241 246 303 275 290 303 313 322 324 292 278 274 276 253 249 246 241 239 243 244 217 215 214 162 208
222 222 221 219 168 187 239 234 237 230 231 225 221 216 223 225 228 230 244 249 252 282 263 291 304 295 325 321 321 294 280 264 269 253 240 242 241 237 229 224 227 211 205 206 202
258 259 173 269 252 236 240 237 241 247 236 214 214 222 236 229 232 241 251 260 273 251 302 302 306 304 331 340 312 298 272 261 259 254 243 232 233 234 229 228 229 214 208 206 201
254 252 260 263 253 244 240 236 239 240 234 228 224 226 233 245 235 239 252 266 277 301 299 301 302 329 344 341 317 303 271 259 251 252 244 231 228 229 217 224 225 228 213 212 212
243 251 249 251 258 255 249 255 229 241 239 228 228 236 235 230 254 266 285 297 299 288 305 311 324 333 325 363 322 291 269 259 253 249 246 236 227 222 220 214 221 222 220 217 219
254 244 249 242 240 252 243 236 233 239 246 228 240 250 237 243 274 275 294 293 290 309 334 334 312 306 306 334 324 301 288 261 257 240 241 237 229 223 224 226 229 223 221 217 221
246 250 251 243 240 250 253 257 254 255 248 265 250 264 276 275 279 294 294 298 319 318 317 308 321 297 294 307 327 308 292 264 261 244 238 238 233 233 233 235 227 228 222 222 221
254 255 252 252 249 258 267 260 258 264 263 268 262 270 268 290 293 286 310 319 309 343 459 409 466 380 318 282 324 336 291 271 260 253 240 240 231 231 229 226 222 228 221 219 220
247 252 252 240 263 260 258 261 264 263 267 271 275 286 283 285 306 318 312 324 362 457 460 470 439 434 348 282 296 306 274 292 257 256 249 241 237 233 230 226 224 217 218 221 212
247 247 256 264 267 258 261 259 260 257 264 285 278 279 289 313 311 298 330 356 395 434 428 430 443 445 398 306 286 317 303 284 269 248 254 248 248 241 228 226 228 222 219 218 231
264 250 257 262 263 268 266 275 278 286 277 277 285 304 305 297 292 333 357 338 437 427 417 410 383 399 478 314 283 302 289 304 286 255 255 263 251 242 238 235 233 228 227 229 234
Wind_Speed
61 68 65 58 61 57 62 63 59 64 66 57 62 63 55 70 63 57 55 71 68 74 70 60 67 67 78 75 76 75 73 67 70 77 75 77 79 69 64 76 74 79 62 77 67
73 72 72 70 70 61 64 68 62 67 66 57 69 71 60 66 68 63 75 62 67 73 58 74 73 74 71 79 80 82 78 69 73 73 81 87 79 85 82 76 76 75 60 60 67
75 74 72 65 70 71 63 70 68 69 68 69 71 54 72 65 73 70 74 72 70 81 78 72 76 76 83 85 84 86 82 65 84 77 94 94 72 70 78 80 79 71 61 53 57
79 79 77 74 77 70 78 69 70 61 73 54 58 76 59 70 77 71 70 82 78 82 75 90 90 84 82 85 86 69 78 93 82 94 99 99 92 90 85 83 82 72 59 56 56
81 68 73 75 76 70 78 78 78 74 78 77 70 76 61 67 81 63 74 84 83 88 85 86 71 92 93 90 89 92 80 85 93 97 96 103 98 74 78 82 78 71 62 58 58
89 88 74 80 80 75 75 79 74 76 78 72 74 83 74 81 75 73 64 86 83 87 83 90 94 100 94 97 76 97 86 93 101 94 105 102 98 95 83 86 57 75 61 57 58
77 88 89 88 59 84 77 83 73 73 68 54 79 84 86 86 89 80 91 86 87 91 68 93 91 92 94 103 94 97 54 102 80 97 88 100 85 87 85 88 80 76 63 56 53
96 95 92 82 79 80 85 88 80 85 65 86 89 90 87 81 77 93 79 75 85 79 93 93 93 75 91 94 89 102 102 96 80 84 77 81 69 78 84 89 83 73 64 56 50
97 91 85 84 93 89 90 81 87 76 59 74 51 79 96 95 91 67 80 83 88 91 80 74 87 87 85 89 87 91 87 73 68 68 70 74 64 66 71 73 67 67 59 55 50
87 88 78 72 99 97 69 92 95 96 89 94 91 94 91 91 94 94 91 88 91 90 85 90 92 89 90 86 89 91 67 66 62 63 66 63 56 60 60 61 59 62 56 52 53
85 82 99 93 96 71 51 103 100 97 93 86 86 70 92 88 72 84 83 83 83 62 89 94 97 93 90 92 75 66 63 61 58 53 54 51 46 47 48 49 51 56 56 54 54
81 95 93 102 103 87 84 88 96 96 96 88 89 89 88 86 83 73 80 84 89 85 87 68 93 79 85 81 81 57 59 55 53 50 48 43 39 40 42 40 52 55 58 56 58
104 100 109 108 106 107 94 101 102 100 101 92 91 90 88 88 55 93 83 88 86 89 96 96 86 80 76 82 59 52 54 51 50 46 43 41 41 33 39 47 48 47 43 56 58
97 109 104 109 108 108 105 105 104 106 106 99 93 92 91 86 86 89 89 90 91 93 99 89 82 84 70 57 53 46 52 48 47 46 39 39 29 31 43 42 44 56 50 58 57
110 110 110 93 106 108 108 107 104 99 107 101 99 96 89 88 89 94 96 93 95 88 106 79 83 78 65 54 47 43 50 47 46 44 38 35 30 31 39 43 50 50 31 58 62
109 107 97 102 109 112 104 109 101 104 109 104 98 98 99 97 92 87 99 90 104 98 93 86 84 70 58 48 43 45 48 44 44 45 35 43 35 38 45 47 51 56 56 59 57
113 115 115 114 113 115 118 116 120 104 115 107 101 100 93 99 104 93 96 102 99 97 82 81 71 63 55 46 42 44 47 41 43 46 38 40 38 43 38 48 56 54 52 44 55
120 114 115 120 80 87 113 110 107 111 106 108 100 96 101 102 100 102 111 104 102 91 88 74 62 61 58 40 42 45 44 43 43 47 41 42 40 40 42 46 44 48 48 51 53
99 98 79 95 104 109 109 107 105 104 107 97 89 94 107 99 97 104 106 104 98 91 77 67 60 58 57 43 46 46 46 46 43 49 44 45 42 41 42 40 45 53 55 59 58
93 94 87 87 93 101 102 104 99 101 102 103 102 101 104 113 94 97 107 100 86 76 73 66 63 58 48 42 40 47 48 48 46 48 50 51 46 40 51 46 47 57 58 60 65
89 84 89 89 86 82 87 87 96 100 104 100 101 107 104 93 108 103 87 79 76 72 71 66 63 46 49 35 38 48 52 52 53 49 51 53 53 50 58 55 52 52 53 62 60
75 81 82 85 86 82 86 93 96 98 102 97 107 107 101 103 95 91 81 79 78 77 71 63 52 45 45 39 41 52 53 57 56 53 52 55 60 56 62 61 54 53 54 56 55
77 80 84 83 84 86 88 87 89 92 99 89 99 91 85 87 86 79 78 77 76 68 64 54 55 48 45 43 40 51 54 62 61 60 56 60 62 65 66 58 53 51 52 53 53
75 78 81 80 80 79 73 77 82 82 83 81 84 83 83 79 78 76 76 72 67 57 42 50 42 57 49 47 44 40 55 65 62 66 63 65 63 65 57 52 50 49 50 52 53
73 74 74 76 76 73 75 73 74 77 78 76 78 75 75 75 74 71 65 64 54 31 29 34 41 49 53 52 50 50 58 62 62 65 69 68 70 61 60 59 56 52 53 57 49
71 72 75 64 67 72 75 75 73 74 75 68 70 70 70 69 65 63 60 50 42 29 26 16 19 38 53 54 55 53 51 58 68 67 71 72 72 66 64 63 61 59 58 52 56
75 62 62 62 64 64 67 67 68 66 64 66 65 66 62 58 59 58 45 47 28 22 24 22 34 35 31 60 56 45 50 51 61 76 75 72 69 66 67 66 66 63 62 57 54
Wind_Direction
280 282 283 281 276 274 283 291 282 287 285 278 273 271 276 281 285 279 283 286 288 286 291 275 288 284 288 273 290 288 283 265 281 278 279 278 280 276 268 282 275 267 282 270 269
283 284 282 280 285 281 283 289 278 280 285 275 280 285 285 285 284 285 288 289 289 289 291 292 285 287 282 288 288 289 287 280 283 286 283 279 285 284 282 278 282 284 276 265 266
281 281 282 278 282 284 285 286 283 285 282 285 288 284 288 278 279 287 284 288 285 291 292 294 287 283 289 287 284 282 282 275 284 285 282 282 285 279 284 274 278 276 271 270 271
279 279 280 282 282 271 286 281 283 287 286 285 275 288 288 274 282 283 285 290 290 289 290 285 288 287 286 284 283 280 284 283 284 283 281 278 282 282 275 274 278 276 272 266 261
281 279 280 282 276 279 287 288 287 289 291 287 285 279 274 285 287 285 283 287 288 285 284 286 287 284 282 280 281 283 281 286 281 282 284 281 273 282 272 274 273 275 270 262 265
280 280 274 283 285 284 287 286 275 287 284 281 278 283 280 283 275 286 285 282 284 284 282 282 283 278 279 278 283 275 283 278 273 271 278 273 272 276 274 270 271 268 265 261 262
277 281 282 284 282 284 283 287 276 273 284 286 286 283 281 283 281 279 284 283 280 280 299 287 283 284 281 278 280 278 284 274 282 283 270 269 268 263 263 261 262 264 260 256 256
278 278 280 282 279 282 286 285 281 286 282 286 284 285 282 282 283 281 285 293 283 287 282 288 293 287 282 280 281 276 275 277 279 273 270 266 264 263 257 256 259 258 254 250 249
274 273 280 278 280 281 281 275 281 282 284 279 275 283 281 280 275 289 285 285 278 280 286 288 291 286 292 287 287 284 285 277 275 273 271 268 265 261 256 254 252 250 247 246 243
276 273 276 278 274 279 277 280 279 280 280 283 278 277 275 273 277 276 279 280 279 284 286 295 298 296 296 292 292 291 281 277 274 270 269 267 264 256 252 249 246 245 241 239 239
266 269 274 275 276 282 279 277 279 280 280 283 280 286 275 278 282 281 279 284 284 293 296 296 297 298 293 292 289 283 275 273 271 268 265 260 253 256 252 244 238 237 239 236 236
275 263 269 274 274 275 273 277 279 282 282 284 280 280 279 282 283 281 289 291 294 294 291 299 286 298 293 290 288 275 271 267 263 264 260 251 251 241 237 232 234 237 238 233 236
275 269 272 272 277 277 279 280 280 282 288 283 282 283 284 288 294 291 290 293 291 294 298 298 290 295 294 286 282 271 266 260 257 259 258 248 251 244 236 233 231 227 234 231 238
266 271 274 271 274 277 276 280 282 284 286 285 284 285 286 288 288 289 291 292 293 294 297 295 294 292 289 289 279 265 259 255 253 254 245 252 241 242 231 228 222 232 224 234 239
263 266 268 271 274 276 276 279 278 280 283 283 282 283 284 286 287 290 290 292 295 293 299 296 293 294 291 289 277 255 253 251 249 252 236 247 237 234 217 215 226 232 245 236 239
266 265 268 270 273 275 276 277 278 279 280 279 280 283 285 286 288 285 291 294 294 296 296 292 294 292 293 287 267 249 249 248 240 247 234 231 231 227 222 221 223 231 232 238 244
263 264 266 269 272 273 274 276 278 276 278 278 279 282 285 286 287 290 291 293 294 296 297 294 291 293 288 280 258 241 245 243 233 237 234 228 228 233 230 223 227 229 234 243 247
265 264 265 267 266 267 267 272 268 271 273 275 277 282 283 285 288 290 291 293 295 295 293 293 295 290 284 268 252 234 231 237 229 229 230 231 229 227 224 226 228 233 238 244 245
263 263 265 260 258 263 267 267 268 267 268 278 280 281 283 283 288 290 292 295 293 291 294 294 291 286 289 269 243 229 227 231 227 225 222 228 228 230 234 231 227 225 233 240 246
261 263 263 262 260 261 263 265 268 268 270 273 277 280 282 284 287 290 292 292 291 290 290 292 288 290 278 263 237 230 224 224 224 222 219 221 224 217 235 229 228 228 233 238 242
256 258 260 261 265 265 266 266 270 271 271 275 278 280 283 287 288 290 288 291 288 287 289 286 287 281 272 263 236 229 218 221 221 219 219 219 222 220 226 229 228 230 234 241 246
252 257 257 258 263 264 265 265 268 271 273 277 280 280 284 286 286 286 289 288 288 290 286 282 277 267 260 253 235 223 215 218 217 221 217 216 222 225 231 231 226 229 233 240 248
253 255 256 261 264 265 267 268 270 272 274 276 279 281 283 284 286 288 288 287 288 285 282 277 269 260 252 247 240 222 215 216 216 217 220 217 219 222 228 229 231 232 234 239 242
252 253 257 262 264 265 264 267 270 272 275 277 279 282 282 286 287 286 289 288 285 283 264 263 243 243 243 241 236 232 218 212 216 216 221 217 222 226 229 232 235 231 234 239 242
255 258 260 264 261 263 266 269 272 274 277 280 282 283 284 287 289 290 288 290 292 285 275 253 247 233 225 230 229 221 219 214 217 217 217 220 222 225 226 229 229 233 235 239 238
257 260 262 263 264 266 269 272 274 276 280 281 283 285 287 291 291 289 295 295 298 283 273 256 249 232 218 220 224 225 213 215 212 221 219 219 222 221 225 230 230 234 238 240 246
254 261 262 264 269 270 272 274 277 278 280 283 286 290 291 290 290 297 300 299 298 290 249 206 216 221 215 213 221 214 210 215 213 219 224 218 220 224 225 229 233 235 240 244 246